Location: Krakow
(50.0212°N, 19.9423°E)
Time: 00:17:15
(UTC+02:00)

NOAA 15 - Pass Details

Date: 13 September 2024
Orbit: 795 x 810 km, 98.6° (Epoch: 10 October)

Event Time Altitude Azimuth Distance (km) Brightness Sun altitude
Rises 20:00:48 0° 188° (S) 3,291 7.7 -10.8°
Reaches altitude 10° 20:03:18 10° 197° (SSW) 2,364 7.0 -11.1°
Maximum altitude 20:08:06 37° 264° (W) 1,233 6.2 -11.9°
Drops below altitude 10° 20:12:56 10° 331° (NNW) 2,377 7.8 -12.6°
Sets 20:15:28 0° 340° (NNW) 3,311 8.5 -13.0°
